"Time","Temp","Dewpoint","Humidity","Pressure","Direction","Speed","Gust","Precip","PrecipRate"
"00:04:59","80.2","71.9","76","30.14","143","1.3","3.5","0.00","0.00"
"00:09:58","80.1","71.8","76","30.14","145","1.1","3.5","0.00","0.00"
"00:14:59","80","71.8","76.2","30.14","157","1.6","4","0.00","0.00"
"00:19:57","80","72","76.8","30.14","184","1.8","5","0.00","0.00"
"00:24:59","79.9","72","77","30.14","199","1.8","5","0.00","0.00"
"00:29:57","79.9","72","77","30.14","170","1.8","5","0.00","0.00"
"00:34:59","79.8","71.9","77","30.14","182","2.6","6","0.00","0.00"
"00:39:59","79.8","71.9","77","30.14","188","1.9","5","0.00","0.00"
"00:44:57","79.7","71.9","77.2","30.14","186","2","4.6","0.00","0.00"
"00:49:58","79.7","71.8","77","30.14","177","1.5","3.5","0.00","0.00"
"00:54:59","79.7","71.8","77","30.14","166","1.3","3.5","0.00","0.00"
"00:59:57","79.7","71.8","77","30.15","171","1.9","4","0.00","0.00"
"01:04:58","79.6","71.9","77.4","30.15","172","1.3","3.5","0.00","0.00"
"01:09:58","79.5","72","77.8","30.15","160","1.5","3.5","0.00","0.00"
"01:14:56","79.5","71.9","77.8","30.15","145","1.1","3.5","0.00","0.00"
"01:19:58","79.4","71.9","78","30.14","151","1.2","3.5","0.00","0.00"
"01:24:56","79.3","71.8","78","30.14","160","1.2","3.5","0.00","0.00"
"01:29:59","79.3","71.8","78","30.14","163","0.6","2.3","0.00","0.00"
"01:34:57","79.2","71.7","78","30.14","163","0.7","3.5","0.00","0.00"
"01:39:55","79.2","71.7","78","30.14","164","0.3","2.3","0.00","0.00"
"01:44:57","79.2","71.7","78","30.15","164","0.6","3","0.00","0.00"
"01:49:56","79","71.7","78.5","30.15","165","0.1","1.2","0.00","0.00"
"01:54:57","78.7","71.6","79","30.15","165","0","1.2","0.00","0.00"
"01:59:57","78.5","71.4","79","30.15","165","0","0","0.00","0.00"
"02:04:56","78.3","71.5","79.8","30.15","165","0","0","0.00","0.00"
"02:09:58","78","71.3","80.1","30.15","165","0","0","0.00","0.00"
"02:14:57","77.6","71.3","81","30.15","165","0","0","0.00","0.00"
"02:19:56","77.2","71.2","81.5","30.15","165","0","0","0.00","0.00"
"02:24:56","76.8","71.1","82.7","30.15","165","0","0","0.00","0.00"
"02:29:56","76.5","71","83.3","30.15","165","0","0","0.00","0.00"
"02:34:56","76.2","71","84","30.15","165","0","0","0.00","0.00"
"02:39:56","76","70.8","84","30.15","165","0","0","0.00","0.00"
"02:44:59","75.9","70.9","84.6","30.15","165","0","0","0.00","0.00"
"02:49:59","75.8","71","85","30.15","165","0","0","0.00","0.00"
"02:54:58","75.7","70.9","85","30.15","165","0","0","0.00","0.00"
"02:59:58","75.5","70.7","85","30.15","165","0","0","0.00","0.00"
"03:04:57","75.2","70.6","85.8","30.15","165","0","0","0.00","0.00"
"03:09:59","74.8","70.6","86.8","30.15","165","0","0","0.00","0.00"
"03:14:57","74.5","70.5","87.3","30.15","165","0","0","0.00","0.00"
"03:19:56","74.3","70.5","88","30.15","164","0","0","0.00","0.00"
"03:24:59","74.2","70.4","88","30.15","165","0","0","0.00","0.00"
"03:29:59","74.2","70.6","88.9","30.15","165","0","0","0.00","0.00"
"03:34:58","74","70.5","88.8","30.15","165","0","0","0.00","0.00"
"03:39:56","73.8","70.4","89","30.15","164","0","0","0.00","0.00"
"03:44:58","73.6","70.3","89.3","30.16","164","0","0","0.00","0.00"
"03:49:57","73.4","70.3","90","30.16","165","0","0","0.00","0.00"
"03:54:56","73.3","70.2","90","30.16","165","0","0","0.00","0.00"
"03:59:56","73.1","70","90","30.16","165","0","0","0.00","0.00"
"04:04:59","72.9","70.1","91","30.16","165","0","0","0.00","0.00"
"04:09:57","72.7","69.9","91","30.16","165","0","0","0.00","0.00"
"04:14:59","72.5","69.7","91","30.16","165","0","0","0.00","0.00"
"04:19:58","72.4","69.9","92","30.16","164","0.3","2","0.00","0.00"
"04:24:56","72.4","69.9","92","30.16","164","0.6","2.3","0.00","0.00"
"04:29:59","72.4","69.9","92","30.16","165","0.2","1.2","0.00","0.00"
"04:34:57","72.3","70","92.5","30.16","164","0.2","1.2","0.00","0.00"
"04:39:56","72.2","69.8","92.1","30.16","165","0","0","0.00","0.00"
"04:44:56","72.1","69.6","92","30.16","165","0","0","0.00","0.00"
"04:49:59","71.9","69.4","92","30.16","164","0.1","1.2","0.00","0.00"
"04:54:58","71.7","69.4","92.6","30.16","164","0.1","1.2","0.00","0.00"
"04:59:58","71.5","69.4","93","30.17","165","0","0","0.00","0.00"
"05:04:56","71.4","69.3","93","30.17","165","0","0","0.00","0.00"
"05:09:58","71.3","69.3","93.3","30.17","165","0","0","0.00","0.00"
"05:14:59","71.2","69.4","93.9","30.18","165","0","0","0.00","0.00"
"05:19:57","71.2","69.3","93.9","30.18","165","0","0","0.00","0.00"
"05:24:59","71.1","69.2","93.8","30.18","165","0","0","0.00","0.00"
"05:29:57","70.9","69.1","94","30.18","164","0","0","0.00","0.00"
"05:34:56","70.9","69.1","94","30.18","164","0","0","0.00","0.00"
"05:39:58","70.8","69.2","94.6","30.18","164","0","0","0.00","0.00"
"05:44:58","70.8","69.1","94.3","30.18","164","0","0","0.00","0.00"
"05:49:57","70.8","69.1","94.6","30.18","164","0","0","0.00","0.00"
"05:54:56","70.6","68.8","94","30.18","164","0","0","0.00","0.00"
"05:59:56","70.5","68.7","94","30.18","164","0","0","0.00","0.00"
"06:04:58","70.4","68.8","94.6","30.18","164","0","0","0.00","0.00"
"06:09:57","70.4","68.9","95","30.18","164","0","0","0.00","0.00"
"06:14:56","70.3","68.8","95","30.18","164","0","0","0.00","0.00"
"06:19:56","70.3","68.8","95","30.18","164","0","0","0.00","0.00"
"06:24:59","70.3","68.8","95","30.18","165","0","0","0.00","0.00"
"06:29:58","70.2","68.7","95","30.18","165","0","0","0.00","0.00"
"06:34:57","70.2","68.7","95","30.18","165","0","0","0.00","0.00"
"06:39:59","70.3","69","95.7","30.18","165","0","0","0.00","0.00"
"06:44:58","70.4","69.2","96","30.18","165","0","0","0.00","0.00"
"06:49:56","70.5","69.3","96","30.18","167","0","0","0.00","0.00"
"06:54:56","70.7","69.5","96","30.18","167","0","0","0.00","0.00"
"06:59:59","71","69.8","96","30.19","168","0","0","0.00","0.00"
"07:04:57","71.2","70","96","30.19","168","0","0","0.00","0.00"
"07:09:59","71.5","70.3","96","30.19","168","0","0","0.00","0.00"
"07:14:57","71.8","70.5","95.5","30.19","168","0","0","0.00","0.00"
"07:19:56","72.2","70.7","95","30.18","168","0","0","0.00","0.00"
"07:24:58","72.5","70.8","94.3","30.18","168","0","0","0.00","0.00"
"07:29:57","72.8","70.8","93.1","30.19","168","0.1","3","0.00","0.00"
"07:34:56","73.2","70.9","92.5","30.19","167","0.6","3.5","0.00","0.00"
"07:39:57","73.5","71","91.9","30.19","256","0","0","0.00","0.00"
"07:44:56","73.9","71","90.8","30.19","256","0","0","0.00","0.00"
"07:49:58","74.3","71.3","90.2","30.19","256","0","0","0.00","0.00"
"07:54:57","74.8","71.6","89.8","30.19","240","0","0","0.00","0.00"
"07:59:57","75.4","71.7","88.3","30.19","240","0","0","0.00","0.00"
"08:04:55","76","71.9","87.3","30.19","240","0","0","0.00","0.00"
"08:09:58","76.6","72.2","86.5","30.19","321","0","0","0.00","0.00"
"08:14:55","77.1","72.4","85.5","30.19","266","0","0","0.00","0.00"
"08:19:59","77.8","72","82.6","30.19","266","0","0","0.00","0.00"
"08:24:58","78.4","72.3","81.7","30.19","266","0","0","0.00","0.00"
"08:29:58","78.9","72.3","80.2","30.19","264","0","0","0.00","0.00"
"08:34:56","79.5","72.2","78.5","30.19","209","0","1.2","0.00","0.00"
"08:39:57","80.1","72.3","77.2","30.19","211","0.4","2.3","0.00","0.00"
"08:44:57","80.7","72.3","75.7","30.19","294","0.5","2.3","0.00","0.00"
"08:49:59","81.2","72.3","74.4","30.19","237","0.7","4","0.00","0.00"
"08:54:56","81.8","71.9","71.9","30.19","187","1.5","4","0.00","0.00"
"08:59:57","82.5","72.1","71.1","30.19","199","1.6","4","0.00","0.00"
"09:04:59","82.9","71.2","67.8","30.19","233","1.6","5","0.00","0.00"
"09:09:57","83.3","70","64.4","30.19","244","2.2","5","0.00","0.00"
"09:14:58","83.6","70.3","64.2","30.19","226","1.7","3.5","0.00","0.00"
"09:19:59","84","71.1","65.2","30.19","199","1.9","5","0.00","0.00"
"09:24:56","84.3","69.8","61.8","30.19","203","1.6","3.5","0.00","0.00"
"09:29:57","84.6","70.1","61.8","30.19","275","1.7","4","0.00","0.00"
"09:34:59","84.8","70","61.2","30.19","183","1.9","4","0.00","0.00"
"09:39:56","85.2","71.5","63.7","30.19","182","1.5","6","0.00","0.00"
"09:44:56","85.4","70.6","61.4","30.19","228","2.3","4.6","0.00","0.00"
"09:49:58","85.5","70.8","61.7","30.19","246","2.7","5","0.00","0.00"
"09:54:59","85.4","70","60.2","30.19","208","2","6","0.00","0.00"
"09:59:57","85.2","68.6","57.6","30.19","339","1.1","4","0.00","0.00"
"10:04:58","85.2","68.9","58.3","30.19","327","1","3.5","0.00","0.00"
"10:09:56","85.3","70.2","60.7","30.19","214","1.9","6","0.00","0.00"
"10:14:56","85.7","69.9","59.4","30.19","197","2.5","5.8","0.00","0.00"
"10:19:57","85.9","68.9","56.8","30.19","232","2.3","5","0.00","0.00"
"10:24:58","86.1","69.4","57.6","30.19","284","2.1","4","0.00","0.00"
"10:29:59","86.4","69.3","56.9","30.19","281","3.2","10.4","0.00","0.00"
"10:34:56","86","68.7","56.5","30.19","310","2.3","10.4","0.00","0.00"
"10:39:56","85.6","69.1","58.1","30.19","295","2.2","6","0.00","0.00"
"10:44:57","85.4","69.6","59.3","30.19","234","2.4","5.8","0.00","0.00"
"10:49:58","85.7","69.7","59","30.18","205","2.5","5","0.00","0.00"
"10:54:55","86","70.3","59.5","30.18","214","2.5","4","0.00","0.00"
"10:59:57","85.7","70.1","59.8","30.18","222","2.2","5","0.00","0.00"
"11:04:58","85.6","70","60","30.18","182","1.5","5","0.00","0.00"
"11:09:56","85.9","70.4","60.1","30.18","190","1.5","4","0.00","0.00"
"11:14:57","86.3","69.7","57.6","30.18","297","1.9","6","0.00","0.00"
"11:19:58","86.6","70.4","58.7","30.18","276","1.9","5","0.00","0.00"
"11:24:59","87","71","59.2","30.18","215","2.7","5","0.00","0.00"
"11:29:56","87.2","70.1","56.9","30.18","233","2.4","6","0.00","0.00"
"11:34:56","86.9","69.9","57.3","30.18","288","1.9","6","0.00","0.00"
"11:39:56","86.7","70.6","59","30.18","195","1.8","5","0.00","0.00"
"11:44:58","86.6","70.4","58.7","30.18","301","1.1","4","0.00","0.00"
"11:49:59","86.7","70.4","58.5","30.18","217","1.9","5","0.00","0.00"
"11:54:57","87.2","70.7","58.3","30.18","326","2.3","6","0.00","0.00"
"11:59:59","87.9","71.7","59","30.18","189","1.8","4","0.00","0.00"
"12:04:56","87.9","71","57.4","30.17","213","1.9","6","0.00","0.00"
"12:09:57","88","71.2","57.7","30.17","260","2.3","5","0.00","0.00"
"12:14:58","88","71.5","58.2","30.17","202","1.7","5","0.00","0.00"
"12:19:56","88","72","59.2","30.17","182","1.4","5","0.00","0.00"
"12:24:57","87.9","71.8","59.2","30.17","188","3.1","7","0.00","0.00"
"12:29:59","88.2","73","60.9","30.17","195","2.8","6","0.00","0.00"
"12:34:57","88.7","72.1","58.1","30.16","192","2.5","5.8","0.00","0.00"
"12:39:57","88.8","72.5","58.9","30.16","222","2.8","7","0.00","0.00"
"12:44:59","88.8","72.6","59","30.16","213","3.3","5.8","0.00","0.00"
"12:49:56","88.7","72.4","58.8","30.16","191","1.6","4.6","0.00","0.00"
"12:54:58","88.6","71.1","56.6","30.16","333","1.6","5","0.00","0.00"
"12:59:59","88.5","71.9","58.1","30.16","298","2.1","6","0.00","0.00"
"13:04:56","88.9","72.4","58.5","30.16","310","1.8","4","0.00","0.00"
"13:09:57","88.8","70.7","55.3","30.16","309","1.7","5","0.00","0.00"
"13:14:59","88.7","71","56","30.16","252","2.2","6","0.00","0.00"
"13:19:56","89.2","71.5","56.2","30.16","262","3.3","7","0.00","0.00"
"13:24:58","89.1","71.6","56.4","30.16","220","2.8","6","0.00","0.00"
"13:29:59","89.1","71.8","56.8","30.16","229","2.3","5","0.00","0.00"
"13:34:59","89.4","73","58.8","30.16","208","2.2","5","0.00","0.00"
"13:39:57","89.6","71.8","56","30.16","335","2.7","6","0.00","0.00"
"13:44:58","89.4","71.2","55.1","30.16","335","2.4","6","0.00","0.00"
"13:49:56","89.6","73.1","58.4","30.16","236","2.2","5","0.00","0.00"
"13:54:57","90.2","72.4","56.1","30.16","295","2.9","6","0.00","0.00"
"13:59:57","90.5","72.9","56.5","30.16","235","3.6","6","0.00","0.00"
"14:04:59","90.3","71.6","54.3","30.16","243","1.9","6","0.00","0.00"
"14:09:56","90.1","71.2","54","30.16","331","1.9","4","0.00","0.00"
"14:14:57","89.8","71","54.1","30.16","327","1.9","5","0.00","0.00"
"14:19:58","89.6","70.9","54.1","30.16","324","2.9","6","0.00","0.00"
"14:24:56","89.3","70.6","54.1","30.16","303","1.8","5.8","0.00","0.00"
"14:29:57","89","70.2","54","30.16","316","1.8","4","0.00","0.00"
"14:34:58","88.7","70.4","54.9","30.15","285","1.2","4","0.00","0.00"
"14:39:58","88.6","71","56.1","30.15","231","1","3.5","0.00","0.00"
"14:44:59","89.1","72.4","58","30.15","275","1.8","5","0.00","0.00"
"14:49:57","89.9","71.7","55.1","30.14","220","1.7","5","0.00","0.00"
"14:54:58","90.1","72","55.6","30.14","163","1.7","5","0.00","0.00"
"14:59:59","90","71.4","54.4","30.14","112","1.2","3.5","0.00","0.00"
"15:04:56","89.9","72.1","56.1","30.14","154","1.6","4","0.00","0.00"
"15:09:58","90.2","73.3","57.9","30.14","180","1.9","4","0.00","0.00"
"15:14:59","90.2","72.3","55.9","30.14","193","1.8","4","0.00","0.00"
"15:19:56","90.4","72.6","56.2","30.13","171","1.4","5","0.00","0.00"
"15:24:58","90.7","71.8","54.2","30.13","172","1.1","4","0.00","0.00"
"15:29:59","90.9","72.8","55.7","30.13","209","1.8","4","0.00","0.00"
"15:34:56","90.6","72.3","55.3","30.13","161","2.1","4","0.00","0.00"
"15:39:57","89.8","71.7","55.4","30.13","227","1.5","4","0.00","0.00"
"15:44:59","89","71.7","56.8","30.13","233","1.4","3.5","0.00","0.00"
"15:49:56","88.5","71.8","58","30.12","182","2.2","5","0.00","0.00"
"15:54:57","88.1","72.3","59.6","30.12","183","1.5","3.5","0.00","0.00"
"15:59:59","87.8","71.7","59.1","30.12","184","0.3","2.3","0.00","0.00"
"16:04:59","87.5","73.6","63.6","30.12","240","1","3.5","0.00","0.00"
"16:09:58","87.1","74.2","65.5","30.12","230","1.9","4","0.00","0.00"
"16:14:57","86.5","73","64.4","30.14","196","3.5","9.2","0.00","0.00"
"16:19:58","85.5","71.8","63.7","30.14","192","3.7","9.2","0.00","0.00"
"16:24:59","84.7","72","65.9","30.14","204","2.2","4","0.00","0.00"
"16:29:57","84.1","72.3","67.7","30.15","196","2.6","10","0.00","0.00"
"16:34:59","83.4","71.5","67.5","30.15","192","4.4","10.4","0.00","0.00"
"16:39:59","82.5","71","68.2","30.15","221","6","10.4","0.00","0.00"
"16:44:57","81.3","69.9","68.6","30.17","208","3.9","10.4","0.00","0.00"
"16:49:58","79.8","69.4","70.5","30.17","271","2.6","6","0.00","0.00"
"16:54:58","78.3","69.8","75.2","30.17","261","1.8","5","0.01","0.00"
"16:59:59","76.9","70","79.3","30.17","233","1.1","4","0.06","0.05"
"17:04:57","75.9","69.8","81.3","30.14","230","0.9","3.5","0.06","0.06"
"17:09:59","75.2","70.3","84.7","30.14","266","0.9","3.5","0.06","0.06"
"17:14:58","74.7","70.6","87.1","30.14","243","0.8","6","0.06","0.06"
"17:19:56","74.3","69.6","85.5","30.14","184","3.5","7","0.06","0.06"
"17:24:59","74.5","70.6","87.6","30.14","197","3.1","10","0.06","0.06"
"17:29:57","75.1","70.2","85","30.15","211","3.2","10.4","0.06","0.06"
"17:34:56","75.7","71","85.3","30.15","234","2.6","5.8","0.06","0.06"
"17:39:57","76.7","71.7","84.6","30.15","230","2.6","4","0.06","0.06"
"17:44:59","77.3","71.1","81.2","30.15","176","2.6","6","0.06","0.06"
"17:49:57","77.8","71.7","81.5","30.14","175","2.2","4","0.06","0.06"
"17:54:59","78.4","71.8","80.4","30.14","198","2.1","4","0.06","0.06"
"17:59:58","78.6","71.8","79.9","30.14","232","1.8","5","0.06","0.05"
"18:04:59","78.4","70.9","77.7","30.12","332","1.8","4.6","0.06","0.00"
"18:09:57","78.3","71.6","79.9","30.12","297","0.6","2.3","0.06","0.00"
"18:14:56","78.5","72.3","81.2","30.13","258","1","3.5","0.06","0.00"
"18:19:58","79","72.7","81.2","30.13","205","0.9","3.5","0.06","0.00"
"18:24:56","79.1","72.1","79.3","30.13","212","1.1","3.5","0.06","0.00"
"18:29:58","79","72.3","80","30.13","211","1","4","0.06","0.00"
"18:34:56","79.1","72.3","79.6","30.12","211","1.8","3.5","0.06","0.00"
"18:39:57","79.3","72.3","79.2","30.12","199","2.4","4","0.06","0.00"
"18:44:59","79.3","71.9","78.2","30.13","194","2.4","5","0.06","0.00"
"18:49:56","79.4","71.7","77.4","30.13","200","2.6","5","0.06","0.00"
"18:54:57","79.3","71.9","78","30.13","203","2.1","4","0.06","0.00"
"18:59:58","79.3","71.9","78.2","30.13","196","3.1","6","0.06","0.00"
"19:04:59","79.2","71.7","77.9","30.13","190","2.7","6","0.06","0.00"
"19:09:59","79.2","71.9","78.7","30.13","198","2.7","5.8","0.06","0.00"
"19:14:57","79.1","72.2","79.4","30.13","228","1.7","4","0.06","0.00"
"19:19:58","79.1","72.3","79.7","30.13","179","2.6","5","0.06","0.00"
"19:24:59","79.1","72.4","80","30.13","216","1.7","4","0.06","0.00"
"19:29:57","79","72.5","80.4","30.13","215","1.7","4","0.06","0.00"
"19:34:58","78.9","72.6","80.9","30.13","170","2.3","5","0.06","0.00"
"19:39:56","78.8","72.5","81","30.13","182","1.8","4","0.06","0.00"
"19:44:59","78.6","72.4","81.1","30.13","186","2.4","4","0.06","0.00"
"19:49:57","78.4","71.9","80.4","30.13","197","2.7","4","0.06","0.00"
"19:54:59","78.3","71.6","80","30.13","208","2.3","6","0.06","0.00"
"19:59:57","78.1","71.5","80.2","30.13","206","1.1","3","0.06","0.00"
"20:04:58","78","71.3","80.1","30.13","205","1.4","4","0.06","0.00"
"20:09:56","77.8","71.4","80.6","30.13","205","1.9","4","0.06","0.00"
"20:14:59","77.7","71.4","81","30.13","206","1.4","3.5","0.06","0.00"
"20:19:57","77.6","71.5","81.6","30.13","246","1.5","3.5","0.06","0.00"
"20:24:56","77.4","71.5","82","30.13","220","1.7","3.5","0.06","0.00"
"20:29:59","77.2","71.3","82","30.14","191","2.3","4","0.06","0.00"
"20:34:57","77","71.3","82.7","30.14","189","2.7","7","0.06","0.00"
"20:39:56","76.8","71.2","83","30.14","181","2.1","4.6","0.06","0.00"
"20:44:56","76.7","71.3","83.6","30.15","162","2.2","5","0.06","0.00"
"20:49:56","76.6","71.4","84","30.15","173","2.8","5","0.06","0.00"
"20:54:56","76.5","71.3","84","30.15","160","1.3","4","0.06","0.00"
"20:59:58","76.4","71.2","84","30.15","147","1.8","3.5","0.06","0.00"
"21:04:56","76.3","71.1","84","30.15","172","2.4","5","0.06","0.00"
"21:09:58","76.2","71","84","30.15","139","1.2","4","0.06","0.00"
"21:14:57","76.1","71.1","84.7","30.16","138","1.5","3.5","0.06","0.00"
"21:19:56","75.9","71.1","85","30.16","152","1.9","4","0.06","0.00"
"21:24:56","75.8","71","85","30.16","175","1","5","0.06","0.00"
"21:29:57","75.7","71","85.3","30.16","162","2.3","4.6","0.06","0.00"
"21:34:56","75.5","71","86","30.16","165","2.5","6","0.06","0.00"
"21:39:56","75.3","70.8","86","30.16","146","1.3","3.5","0.06","0.00"
"21:44:59","75.2","70.7","86","30.16","148","1.3","3.5","0.06","0.00"
"21:49:59","75.1","70.8","86.7","30.16","150","1.1","3.5","0.06","0.00"
"21:54:59","75","70.9","87","30.16","168","1.8","4","0.06","0.00"
"21:59:59","74.9","70.8","87","30.16","216","2","6","0.06","0.00"
"22:04:58","74.8","70.7","87","30.16","173","1.3","3.5","0.06","0.00"
"22:09:56","74.8","70.7","87","30.16","169","1","3.5","0.06","0.00"
"22:14:59","74.7","70.6","87","30.16","167","0.6","2.3","0.06","0.00"
"22:19:59","74.6","70.5","87","30.16","167","0.5","2.3","0.06","0.00"
"22:24:59","74.5","70.4","87","30.16","167","0.6","2.3","0.06","0.00"
"22:29:59","74.4","70.5","87.8","30.16","167","0","0","0.06","0.00"
"22:34:59","74.2","70.4","88","30.16","167","0","0","0.06","0.00"
"22:39:59","74.1","70.3","88","30.16","167","0","0","0.06","0.00"
"22:44:59","73.9","70.1","88","30.16","167","0","0","0.06","0.00"
"22:49:56","73.7","70.2","88.5","30.16","167","0","0","0.06","0.00"
"22:54:56","73.6","70.2","89","30.16","167","0","0","0.06","0.00"
"22:59:57","73.5","70.1","89","30.16","163","0.2","2.3","0.06","0.00"
"23:04:56","73.4","70","89","30.16","163","0","2.3","0.06","0.00"
"23:09:58","73.4","70","89","30.16","163","0","0","0.06","0.00"
"23:14:58","73.3","69.9","89","30.16","163","0","0","0.06","0.00"
"23:19:59","73.1","69.9","89.8","30.16","163","0","0","0.06","0.00"
"23:24:56","73","69.9","90","30.16","163","0","0","0.06","0.00"
"23:29:56","73","70.1","90.6","30.16","163","0","0","0.06","0.00"
"23:34:57","72.9","70.1","91","30.16","163","0","0","0.06","0.00"
"23:39:56","72.8","70","91","30.16","163","0","0","0.06","0.00"
"23:44:58","72.6","70.1","91.7","30.16","163","0","0","0.06","0.00"
"23:49:58","72.5","69.9","91.7","30.16","163","0","0","0.06","0.00"
"23:54:58","72.4","70.2","92.9","30.16","163","0","0","0.06","0.00"
"23:59:58","72.3","70.2","93","30.16","163","0","0","0.06","0.00"
